UAE9737 EINN-WMKK

Flight info

Callsign UAE9737
Flight time N/A
Altitude 33000
Route ABAGU3B ABAGU DCT BEPAN DCT LANON DCT FITBO DCT ADMIS DCT MOMIC DCT WOODY DCT SORAT DCT BIGSU DCT TIKNI DCT GORKO DCT TIPAM DCT MIKOV DCT NORAH DCT ENIMA DCT DINRO N743 UDROS/N0479F350 UM859 KARDE UN644 ROLIN N644 LAGAS M747 SUBUT T923 ERLEV M11 RODAR A909 LEMOD N644 PAGMA/N0485F370 N644 DI M875 KAKID M770 DABEN/N0483F390 M770 OBMOG L515 PUT B579 VPL Y503 RINBA Y507 KAKAK KAKAK1G
Aircraft B77L/H-SDE1E2E3FGHIJ2J3J4J5M1RWXY/LB1D1

Departure

Time 2026-05-06 22:37
Airport Shannon Airport (EINN)

Arrival

Time N/A
Airport Kuala Lumpur International Airport (WMKK)
Time Latitude Longitude Altitude Speed Heading
2026-05-06 21:55 52.69402 -8.92525 27 ft 0 kts 185°
2026-05-06 22:21 52.69425 -8.92522 27 ft 4 kts 185°
2026-05-06 22:21 52.69452 -8.92518 27 ft 4 kts 185°
2026-05-06 22:21 52.69479 -8.92514 24 ft 4 kts 185°
2026-05-06 22:22 52.69490 -8.92512 26 ft 0 kts 185°
2026-05-06 22:29 52.69483 -8.92507 27 ft 2 kts 151°
2026-05-06 22:30 52.69481 -8.92448 27 ft 13 kts 85°
2026-05-06 22:30 52.69504 -8.92295 27 ft 12 kts 73°
2026-05-06 22:30 52.69490 -8.92152 27 ft 14 kts 107°
2026-05-06 22:30 52.69466 -8.92002 27 ft 14 kts 103°
2026-05-06 22:31 52.69440 -8.91853 26 ft 14 kts 110°
2026-05-06 22:31 52.69374 -8.91752 27 ft 14 kts 157°
2026-05-06 22:31 52.69297 -8.91667 27 ft 14 kts 133°
2026-05-06 22:31 52.69274 -8.91534 26 ft 14 kts 49°
2026-05-06 22:32 52.69361 -8.91472 27 ft 14 kts 22°
2026-05-06 22:32 52.69449 -8.91419 27 ft 13 kts 15°
2026-05-06 22:32 52.69538 -8.91372 27 ft 14 kts 18°
2026-05-06 22:32 52.69636 -8.91318 27 ft 15 kts 18°
2026-05-06 22:33 52.69737 -8.91263 27 ft 15 kts 18°
2026-05-06 22:33 52.69841 -8.91206 27 ft 16 kts 18°
2026-05-06 22:33 52.69952 -8.91143 27 ft 19 kts 19°
2026-05-06 22:33 52.70093 -8.91065 27 ft 23 kts 18°
2026-05-06 22:34 52.70257 -8.90975 27 ft 27 kts 18°
2026-05-06 22:34 52.70440 -8.90873 27 ft 28 kts 18°
2026-05-06 22:34 52.70627 -8.90771 27 ft 28 kts 19°
2026-05-06 22:34 52.70813 -8.90669 27 ft 28 kts 14°
2026-05-06 22:35 52.70938 -8.90732 27 ft 14 kts 323°
2026-05-06 22:35 52.70957 -8.90876 27 ft 15 kts 240°
2026-05-06 22:35 52.70894 -8.91009 28 ft 15 kts 232°
2026-05-06 22:35 52.70833 -8.91140 30 ft 15 kts 233°
2026-05-06 22:36 52.70749 -8.91327 29 ft 30 kts 233°
2026-05-06 22:36 52.70510 -8.91826 32 ft 96 kts 233°
2026-05-06 22:36 52.69920 -8.93084 44 ft 181 kts 232°
2026-05-06 22:36 52.69051 -8.94932 430 ft 214 kts 233°
2026-05-06 22:37 52.68142 -8.96922 1374 ft 220 kts 235°
2026-05-06 22:37 52.67187 -8.98959 1970 ft 231 kts 223°
2026-05-06 22:37 52.65720 -9.00063 2331 ft 241 kts 184°
2026-05-06 22:37 52.64099 -8.99453 2725 ft 244 kts 148°
2026-05-06 22:38 52.62779 -8.97733 3142 ft 243 kts 140°
2026-05-06 22:38 52.61482 -8.95959 3419 ft 247 kts 141°
2026-05-06 22:38 52.60162 -8.94140 3700 ft 248 kts 135°
2026-05-06 22:38 52.59294 -8.91718 4167 ft 250 kts 102°
2026-05-06 22:39 52.59077 -8.88860 4509 ft 255 kts 97°
2026-05-06 22:39 52.58890 -8.85928 4909 ft 258 kts 97°
2026-05-06 22:39 52.58697 -8.82970 4996 ft 264 kts 97°
2026-05-06 22:39 52.58503 -8.79978 5012 ft 263 kts 97°
2026-05-06 22:40 52.58308 -8.76992 4991 ft 260 kts 97°
2026-05-06 22:40 52.58116 -8.74054 4997 ft 258 kts 97°
2026-05-06 22:40 52.57922 -8.71114 5113 ft 259 kts 97°
2026-05-06 22:40 52.57725 -8.68155 5841 ft 262 kts 98°
2026-05-06 22:41 52.57318 -8.62111 7274 ft 270 kts 98°
2026-05-06 22:41 52.57108 -8.59023 7977 ft 274 kts 98°
2026-05-06 22:41 52.56894 -8.55877 8677 ft 279 kts 98°
2026-05-06 22:42 52.56678 -8.52728 9370 ft 283 kts 97°
2026-05-06 22:42 52.56456 -8.49494 10065 ft 286 kts 98°
2026-05-06 22:42 52.56230 -8.46230 10742 ft 288 kts 97°
2026-05-06 22:42 52.56002 -8.42943 11401 ft 291 kts 97°
2026-05-06 22:43 52.55770 -8.39609 12011 ft 295 kts 98°
2026-05-06 22:43 52.55533 -8.36230 12648 ft 299 kts 97°
2026-05-06 22:43 52.55293 -8.32814 13288 ft 302 kts 97°
2026-05-06 22:43 52.55050 -8.29370 13907 ft 306 kts 97°
2026-05-06 22:44 52.54804 -8.25894 14472 ft 309 kts 97°
2026-05-06 22:44 52.54554 -8.22376 15049 ft 312 kts 97°
2026-05-06 22:44 52.54300 -8.18822 15600 ft 315 kts 97°
2026-05-06 22:44 52.54046 -8.15280 16162 ft 318 kts 97°
2026-05-06 22:45 52.53779 -8.11583 16534 ft 330 kts 97°
2026-05-06 22:45 52.53500 -8.07736 16742 ft 345 kts 97°
2026-05-06 22:45 52.53216 -8.03822 17163 ft 354 kts 97°
2026-05-06 22:45 52.52920 -7.99775 17718 ft 359 kts 97°
2026-05-06 22:46 52.52620 -7.95683 18353 ft 362 kts 97°
2026-05-06 22:46 52.52316 -7.91563 18916 ft 364 kts 97°
2026-05-06 22:46 52.52009 -7.87419 19494 ft 366 kts 97°
2026-05-06 22:46 52.51699 -7.83249 20043 ft 369 kts 97°
2026-05-06 22:47 52.51385 -7.79053 20589 ft 371 kts 96°
2026-05-06 22:47 52.51069 -7.74837 21178 ft 373 kts 96°
2026-05-06 22:47 52.50749 -7.70594 21741 ft 376 kts 96°
2026-05-06 22:47 52.50424 -7.66326 22311 ft 378 kts 96°
2026-05-06 22:48 52.50191 -7.61990 22589 ft 388 kts 90°
2026-05-06 22:48 52.50225 -7.57482 22758 ft 401 kts 86°
2026-05-06 22:48 52.50374 -7.52871 23163 ft 407 kts 86°
2026-05-06 22:48 52.50545 -7.48204 23689 ft 410 kts 86°
2026-05-06 22:49 52.50703 -7.43525 24183 ft 412 kts 86°
2026-05-06 22:49 52.50841 -7.38815 24714 ft 413 kts 86°
2026-05-06 22:49 52.50960 -7.34090 25207 ft 415 kts 87°
2026-05-06 22:49 52.51066 -7.29343 25684 ft 417 kts 87°
2026-05-06 22:50 52.51164 -7.24631 26152 ft 420 kts 87°
2026-05-06 22:50 52.51258 -7.19826 26605 ft 422 kts 87°
2026-05-06 22:50 52.51350 -7.14989 27076 ft 425 kts 87°
2026-05-06 22:50 52.51440 -7.10159 27540 ft 427 kts 87°
2026-05-06 22:51 52.51529 -7.05274 27996 ft 429 kts 87°
2026-05-06 22:51 52.51616 -7.00361 28436 ft 432 kts 87°
2026-05-06 22:51 52.51703 -6.95421 28889 ft 434 kts 87°
2026-05-06 22:51 52.51788 -6.90451 29303 ft 437 kts 87°
2026-05-06 22:52 52.51872 -6.85451 29736 ft 440 kts 87°
2026-05-06 22:52 52.51954 -6.80405 30144 ft 442 kts 87°
2026-05-06 22:52 52.52034 -6.75358 30504 ft 444 kts 87°
2026-05-06 22:52 52.52112 -6.70282 30881 ft 445 kts 87°
2026-05-06 22:53 52.52188 -6.65200 31256 ft 446 kts 87°
2026-05-06 22:53 52.52263 -6.60094 31611 ft 447 kts 87°
2026-05-06 22:53 52.52335 -6.54977 31946 ft 449 kts 87°
2026-05-06 22:53 52.52406 -6.49848 32271 ft 450 kts 87°
2026-05-06 22:54 52.52474 -6.44693 32536 ft 453 kts 86°
2026-05-06 22:54 52.52587 -6.36019 32612 ft 462 kts 86°
2026-05-06 22:55 52.52707 -6.25303 32628 ft 476 kts 88°
2026-05-06 22:55 52.52246 -6.12504 32615 ft 487 kts 93°
2026-05-06 22:56 52.51748 -6.03222 32611 ft 487 kts 93°
2026-05-06 22:56 52.51187 -5.92151 32606 ft 486 kts 92°
2026-05-06 22:57 52.50667 -5.81108 32606 ft 485 kts 92°
2026-05-06 22:57 52.50157 -5.70155 32605 ft 484 kts 92°
2026-05-06 22:58 52.49634 -5.59151 32610 ft 483 kts 92°
2026-05-06 22:58 52.49099 -5.48185 32610 ft 482 kts 92°
2026-05-06 22:59 52.48553 -5.37225 32611 ft 482 kts 92°
2026-05-06 22:59 52.47997 -5.26277 32613 ft 482 kts 92°
2026-05-06 23:00 52.47431 -5.15320 32606 ft 482 kts 92°
2026-05-06 23:00 52.46856 -5.04369 32615 ft 482 kts 92°
2026-05-06 23:01 52.46270 -4.93424 32622 ft 482 kts 92°
2026-05-06 23:01 52.45676 -4.82522 32614 ft 483 kts 92°
2026-05-06 23:02 52.45068 -4.71556 32618 ft 483 kts 93°
2026-05-06 23:02 52.44450 -4.60573 32616 ft 484 kts 93°
2026-05-06 23:03 52.43821 -4.49585 32616 ft 484 kts 93°
2026-05-06 23:03 52.43183 -4.38596 32616 ft 485 kts 93°
2026-05-06 23:04 52.42286 -4.27627 32619 ft 486 kts 97°
2026-05-06 23:04 52.41122 -4.16708 32619 ft 487 kts 98°
2026-05-06 23:05 52.39955 -4.05781 32617 ft 487 kts 97°
2026-05-06 23:05 52.38820 -3.94837 32632 ft 488 kts 97°
2026-05-06 23:06 52.37693 -3.83880 32621 ft 489 kts 97°
2026-05-06 23:06 52.36555 -3.72910 32620 ft 489 kts 97°
2026-05-06 23:07 52.35404 -3.61950 32622 ft 489 kts 97°
2026-05-06 23:07 52.34242 -3.50993 32624 ft 489 kts 97°
2026-05-06 23:08 52.33076 -3.40104 32632 ft 489 kts 98°
2026-05-06 23:08 52.31892 -3.29142 32634 ft 490 kts 98°
2026-05-06 23:09 52.30696 -3.18170 32635 ft 490 kts 98°
2026-05-06 23:09 52.29490 -3.07200 32640 ft 491 kts 98°
2026-05-06 23:10 52.28271 -2.96216 32647 ft 491 kts 98°
2026-05-06 23:10 52.27041 -2.85231 32646 ft 492 kts 98°
2026-05-06 23:11 52.25808 -2.74315 32647 ft 492 kts 98°
2026-05-06 23:11 52.24556 -2.63324 32644 ft 493 kts 99°
2026-05-06 23:11 52.23925 -2.57819 32891 ft 491 kts 99°
2026-05-06 23:12 52.23295 -2.52346 33002 ft 488 kts 99°
2026-05-06 23:12 52.22045 -2.41547 33045 ft 483 kts 99°
2026-05-06 23:13 52.21033 -2.30655 33069 ft 490 kts 96°
2026-05-06 23:13 52.20253 -2.19528 33066 ft 497 kts 95°
2026-05-06 23:14 52.19448 -2.08265 33066 ft 502 kts 96°
2026-05-06 23:14 52.18584 -1.96970 33058 ft 502 kts 96°
2026-05-06 23:15 52.17693 -1.85731 33062 ft 503 kts 96°
2026-05-06 23:15 52.16783 -1.74407 33056 ft 504 kts 96°
2026-05-06 23:16 52.15863 -1.63073 33053 ft 504 kts 96°
2026-05-06 23:16 52.14934 -1.51742 33051 ft 504 kts 96°
2026-05-06 23:17 52.13996 -1.40424 33046 ft 505 kts 97°
2026-05-06 23:17 52.13045 -1.29094 33050 ft 505 kts 97°
2026-05-06 23:18 52.12082 -1.17763 33052 ft 506 kts 97°
2026-05-06 23:18 52.11107 -1.06418 33053 ft 506 kts 97°
2026-05-06 23:19 52.10127 -0.95148 33055 ft 506 kts 98°
2026-05-06 23:19 52.09129 -0.83803 33061 ft 507 kts 98°
2026-05-06 23:20 52.08118 -0.72437 33059 ft 508 kts 98°
2026-05-06 23:20 52.07095 -0.61055 33057 ft 509 kts 98°
2026-05-06 23:21 52.06059 -0.49673 33055 ft 509 kts 98°
2026-05-06 23:21 52.05012 -0.38286 33051 ft 510 kts 98°
2026-05-06 23:22 52.03955 -0.26910 33042 ft 510 kts 98°
2026-05-06 23:22 52.02886 -0.15527 33053 ft 510 kts 98°
2026-05-06 23:23 52.01804 -0.04133 33050 ft 510 kts 98°
2026-05-06 23:23 52.00711 0.07262 33047 ft 510 kts 99°
2026-05-06 23:24 51.99608 0.18644 33050 ft 510 kts 99°
2026-05-06 23:24 51.98259 0.29879 33050 ft 510 kts 102°
2026-05-06 23:25 51.96721 0.41114 33044 ft 510 kts 103°
2026-05-06 23:25 51.95198 0.52351 33046 ft 510 kts 102°
2026-05-06 23:26 51.93702 0.63610 33039 ft 511 kts 102°
2026-05-06 23:26 51.92207 0.74880 33036 ft 512 kts 102°
2026-05-06 23:27 51.90697 0.86170 33027 ft 513 kts 102°
2026-05-06 23:27 51.89175 0.97448 33028 ft 513 kts 103°
2026-05-06 23:28 51.87637 1.08742 33026 ft 514 kts 103°
2026-05-06 23:28 51.86096 1.19968 33028 ft 514 kts 103°
2026-05-06 23:29 51.84536 1.31251 33027 ft 514 kts 103°
2026-05-06 23:29 51.82964 1.42537 33030 ft 514 kts 103°
2026-05-06 23:30 51.81382 1.53810 33029 ft 514 kts 103°
2026-05-06 23:30 51.79790 1.65073 33033 ft 514 kts 103°
2026-05-06 23:31 51.78188 1.76316 33022 ft 513 kts 103°
2026-05-06 23:31 51.76576 1.87548 33029 ft 513 kts 103°
2026-05-06 23:32 51.74954 1.98769 33029 ft 512 kts 103°
2026-05-06 23:32 51.73325 2.09955 33023 ft 512 kts 104°
2026-05-06 23:33 51.71695 2.21071 33019 ft 512 kts 104°
2026-05-06 23:33 51.70048 2.32226 33021 ft 511 kts 104°
2026-05-06 23:34 51.68389 2.43388 33014 ft 511 kts 104°
2026-05-06 23:34 51.66744 2.54523 33010 ft 511 kts 103°
2026-05-06 23:35 51.65221 2.65709 33016 ft 511 kts 102°
2026-05-06 23:35 51.63723 2.76891 33007 ft 511 kts 103°
2026-05-06 23:36 51.62197 2.88057 33007 ft 511 kts 103°
2026-05-06 23:36 51.60647 2.99222 33012 ft 511 kts 103°
2026-05-06 23:37 51.59084 3.10371 33002 ft 511 kts 103°
2026-05-06 23:37 51.57510 3.21527 32995 ft 511 kts 103°
2026-05-06 23:38 51.55937 3.32594 32999 ft 511 kts 103°
2026-05-06 23:38 51.54343 3.43733 33003 ft 510 kts 103°
2026-05-06 23:39 51.52746 3.54813 32986 ft 509 kts 103°
2026-05-06 23:39 51.51140 3.65872 32982 ft 507 kts 103°
2026-05-06 23:40 51.49532 3.76869 32985 ft 505 kts 103°
2026-05-06 23:40 51.47925 3.87780 32977 ft 504 kts 103°
2026-05-06 23:41 51.46302 3.98726 32976 ft 503 kts 103°
2026-05-06 23:41 51.44949 4.07790 32974 ft 503 kts 103°
2026-05-06 23:42 51.43312 4.18695 32970 ft 503 kts 103°
2026-05-06 23:42 51.41665 4.29593 32968 ft 503 kts 103°
2026-05-06 23:43 51.39744 4.42268 32966 ft 504 kts 103°
2026-05-06 23:43 51.38375 4.51421 32968 ft 504 kts 103°
2026-05-06 23:44 51.36738 4.62348 32968 ft 505 kts 103°
2026-05-06 23:44 51.35099 4.73194 32966 ft 505 kts 103°
2026-05-06 23:45 51.33433 4.84119 32970 ft 505 kts 103°
2026-05-06 23:45 51.31759 4.95023 32971 ft 504 kts 103°
2026-05-06 23:46 51.30078 5.05902 32975 ft 504 kts 104°
2026-05-06 23:46 51.28388 5.16764 32970 ft 503 kts 104°
2026-05-06 23:47 51.26688 5.27617 32968 ft 503 kts 104°
2026-05-06 23:47 51.24980 5.38455 32969 ft 503 kts 104°
2026-05-06 23:48 51.23264 5.49271 32967 ft 503 kts 104°
2026-05-06 23:48 51.21552 5.59998 32965 ft 502 kts 104°
2026-05-06 23:49 51.19735 5.70770 32969 ft 502 kts 105°
2026-05-06 23:49 51.17855 5.81493 32961 ft 502 kts 105°
2026-05-06 23:50 51.15972 5.92217 32966 ft 503 kts 105°
2026-05-06 23:50 51.13147 6.08305 32965 ft 503 kts 105°